Climatologie pour Saint-Brevin les Pins
Jour • Résumé pour mars 5, 2017 Système :  Métrique    Anglais   Mixte
« - 1 jour
+ 1 jour »
Jour Semaine Mois Année Personnalisé
  Maximum : Minimum : Moyenne :
Température sous abri : 12.3 °C 8.3 °C 9.7 °C
Point de rosée : 9.7 °C 6.2 °C 8 °C
Humidité : 97 % 75 % 89 %
Vitesse du vent : 40.2 km/h 0.0 km/h 14.8 km/h
Rafale : 59.5 km/h - -
Direction :- - West
Pression : 1010.4 hPa 997.2 hPa -
Précipitations : 11.2 mm    
Historical Graphs
 
 
Tableau de données pour mars 5, 2017
Heure Tempé Pt rosée Pression Vent Vitesse Rafale Humidité Taux pluie (/hr) Soleil
00:00 8.9 °C 6.2 °C 1002.6 hPa West 9.7 km/h 19.3 km/h 83 % 0.0 mm 0 W/m2
00:05 8.9 °C 6.2 °C 1002.6 hPa WSW 11.3 km/h 19.3 km/h 83 % 0.0 mm 0 W/m2
00:10 9.0 °C 6.3 °C 1002.6 hPa WNW 8.0 km/h 19.3 km/h 83 % 0.0 mm 0 W/m2
00:15 9.0 °C 6.3 °C 1002.6 hPa WSW 14.5 km/h 19.3 km/h 83 % 0.0 mm 0 W/m2
00:20 9.0 °C 6.3 °C 1002.6 hPa SSW 11.3 km/h 17.7 km/h 83 % 0.0 mm 0 W/m2
00:25 8.9 °C 6.4 °C 1002.6 hPa WSW 6.4 km/h 24.1 km/h 84 % 0.0 mm 0 W/m2
00:30 8.9 °C 6.3 °C 1002.6 hPa West 3.2 km/h 24.1 km/h 84 % 0.0 mm 0 W/m2
00:35 8.9 °C 6.5 °C 1002.6 hPa WSW 9.7 km/h 19.3 km/h 85 % 0.0 mm 0 W/m2
00:40 8.9 °C 6.3 °C 1002.6 hPa West 6.4 km/h 19.3 km/h 84 % 0.0 mm 0 W/m2
00:50 8.9 °C 6.5 °C 1002.6 hPa West 9.7 km/h 14.5 km/h 85 % 0.0 mm 0 W/m2
00:55 8.8 °C 6.4 °C 1002.6 hPa WSW 6.4 km/h 14.5 km/h 85 % 0.0 mm 0 W/m2
01:00 8.9 °C 6.5 °C 1002.6 hPa WSW 6.4 km/h 14.5 km/h 85 % 0.0 mm 0 W/m2
01:10 8.9 °C 6.7 °C 1002.6 hPa Calm   12.9 km/h 86 % 0.0 mm 0 W/m2
01:15 8.9 °C 6.7 °C 1002.6 hPa SW 4.8 km/h 9.7 km/h 86 % 0.0 mm 0 W/m2
01:20 8.8 °C 6.6 °C 1002.6 hPa WSW 6.4 km/h 11.3 km/h 86 % 0.0 mm 0 W/m2
01:25 8.9 °C 6.7 °C 1002.3 hPa SW 3.2 km/h 11.3 km/h 86 % 0.0 mm 0 W/m2
01:30 8.9 °C 6.7 °C 1002.3 hPa SW 4.8 km/h 9.7 km/h 86 % 0.0 mm 0 W/m2
01:35 9.1 °C 6.8 °C 1002.3 hPa SW 3.2 km/h 11.3 km/h 86 % 0.0 mm 0 W/m2
01:40 9.1 °C 6.7 °C 1002.6 hPa SW 6.4 km/h 14.5 km/h 85 % 0.0 mm 0 W/m2
01:45 9.2 °C 6.7 °C 1002.6 hPa WSW 8.0 km/h 22.5 km/h 84 % 0.0 mm 0 W/m2
01:50 9.2 °C 6.3 °C 1002.6 hPa WSW 11.3 km/h 22.5 km/h 82 % 0.0 mm 0 W/m2
01:55 9.3 °C 6.4 °C 1002.6 hPa SW 9.7 km/h 22.5 km/h 82 % 0.0 mm 0 W/m2
02:00 9.3 °C 6.5 °C 1002.6 hPa WSW 3.2 km/h 17.7 km/h 83 % 0.0 mm 0 W/m2
02:05 9.2 °C 6.7 °C 1002.3 hPa Calm   16.1 km/h 84 % 0.0 mm 0 W/m2
02:10 9.2 °C 6.8 °C 1002.3 hPa SSW 3.2 km/h 11.3 km/h 85 % 0.0 mm 0 W/m2
02:15 9.2 °C 6.9 °C 1002.3 hPa SSW 11.3 km/h 25.7 km/h 86 % 0.0 mm 0 W/m2
02:20 9.2 °C 6.9 °C 1001.9 hPa South 17.7 km/h 25.7 km/h 86 % 0.0 mm 0 W/m2
02:25 9.1 °C 6.7 °C 1002.3 hPa WSW 16.1 km/h 25.7 km/h 85 % 0.0 mm 0 W/m2
02:30 9.1 °C 6.7 °C 1001.9 hPa South 12.9 km/h 25.7 km/h 85 % 0.0 mm 0 W/m2
02:35 9.1 °C 6.9 °C 1001.9 hPa SW 6.4 km/h 20.9 km/h 86 % 0.0 mm 0 W/m2
02:40 9.2 °C 7.1 °C 1001.9 hPa SW 11.3 km/h 20.9 km/h 87 % 0.0 mm 0 W/m2
02:45 9.2 °C 7.3 °C 1001.9 hPa WSW 6.4 km/h 20.9 km/h 88 % 0.0 mm 0 W/m2
02:50 9.1 °C 7.2 °C 1001.9 hPa SSW 8.0 km/h 20.9 km/h 88 % 0.0 mm 0 W/m2
02:55 9.1 °C 7.4 °C 1001.9 hPa West 16.1 km/h 17.7 km/h 89 % 0.0 mm 0 W/m2
03:00 9.2 °C 7.3 °C 1001.9 hPa SSW 12.9 km/h 27.4 km/h 88 % 0.0 mm 0 W/m2
03:10 9.2 °C 7.4 °C 1001.9 hPa SW 14.5 km/h 24.1 km/h 89 % 0.0 mm 0 W/m2
03:15 9.1 °C 7.3 °C 1001.6 hPa SSW 4.8 km/h 24.1 km/h 89 % 0.0 mm 0 W/m2
03:20 9.0 °C 7.4 °C 1001.9 hPa SW 8.0 km/h 22.5 km/h 90 % 0.0 mm 0 W/m2
03:25 8.9 °C 7.6 °C 1001.6 hPa South 16.1 km/h 29.0 km/h 91 % 0.3 mm 0 W/m2
03:30 8.8 °C 7.4 °C 1001.9 hPa SW 14.5 km/h 29.0 km/h 91 % 0.3 mm 0 W/m2
03:35 8.8 °C 7.5 °C 1001.9 hPa West 4.8 km/h 19.3 km/h 92 % 0.3 mm 0 W/m2
03:40 8.7 °C 7.4 °C 1001.6 hPa SW 11.3 km/h 20.9 km/h 92 % 0.5 mm 0 W/m2
03:45 8.5 °C 7.3 °C 1001.6 hPa West 6.4 km/h 20.9 km/h 92 % 0.5 mm 0 W/m2
03:50 8.4 °C 7.2 °C 1001.2 hPa WSW 12.9 km/h 17.7 km/h 92 % 0.5 mm 0 W/m2
03:55 8.6 °C 7.5 °C 1001.2 hPa Calm   17.7 km/h 93 % 0.5 mm 0 W/m2
04:00 8.6 °C 7.5 °C 1001.2 hPa South 9.7 km/h 20.9 km/h 93 % 0.5 mm 0 W/m2
04:05 8.6 °C 7.5 °C 1001.2 hPa SSW 11.3 km/h 24.1 km/h 93 % 0.5 mm 0 W/m2
04:10 8.6 °C 7.6 °C 1000.9 hPa South 11.3 km/h 25.7 km/h 94 % 0.8 mm 0 W/m2
04:15 8.5 °C 7.6 °C 1000.9 hPa South 9.7 km/h 25.7 km/h 94 % 0.8 mm 0 W/m2
04:20 8.4 °C 7.5 °C 1000.9 hPa South 11.3 km/h 24.1 km/h 94 % 0.8 mm 0 W/m2
04:25 8.4 °C 7.5 °C 1000.6 hPa South 12.9 km/h 24.1 km/h 94 % 0.8 mm 0 W/m2
04:30 8.3 °C 7.6 °C 1000.6 hPa South 14.5 km/h 22.5 km/h 95 % 1.0 mm 0 W/m2
04:40 8.3 °C 7.6 °C 1000.2 hPa South 12.9 km/h 27.4 km/h 95 % 0.8 mm 0 W/m2
04:45 8.3 °C 7.6 °C 1000.2 hPa South 9.7 km/h 25.7 km/h 95 % 0.8 mm 0 W/m2
04:50 8.3 °C 7.5 °C 999.9 hPa South 11.3 km/h 20.9 km/h 95 % 0.5 mm 0 W/m2
04:55 8.3 °C 7.5 °C 999.9 hPa SSW 16.1 km/h 29.0 km/h 95 % 0.5 mm 0 W/m2
05:00 8.3 °C 7.5 °C 999.5 hPa SSW 16.1 km/h 29.0 km/h 95 % 0.8 mm 0 W/m2
05:05 8.3 °C 7.7 °C 999.5 hPa South 9.7 km/h 24.1 km/h 96 % 0.5 mm 0 W/m2
05:10 8.3 °C 7.7 °C 999.5 hPa SSW 9.7 km/h 24.1 km/h 96 % 0.8 mm 0 W/m2
05:15 8.3 °C 7.7 °C 999.5 hPa SSW 17.7 km/h 24.1 km/h 96 % 0.8 mm 0 W/m2
05:20 8.3 °C 7.7 °C 999.5 hPa SSW 19.3 km/h 27.4 km/h 96 % 1.0 mm 0 W/m2
05:25 8.3 °C 7.7 °C 999.2 hPa SSW 22.5 km/h 30.6 km/h 96 % 1.0 mm 0 W/m2
05:30 8.3 °C 7.7 °C 999.2 hPa SSE 16.1 km/h 30.6 km/h 96 % 1.0 mm 0 W/m2
05:40 8.4 °C 7.8 °C 999.2 hPa South 14.5 km/h 27.4 km/h 96 % 1.3 mm 0 W/m2
05:45 8.4 °C 7.8 °C 999.2 hPa SSW 12.9 km/h 33.8 km/h 96 % 1.5 mm 0 W/m2
05:50 8.5 °C 7.9 °C 998.9 hPa South 11.3 km/h 33.8 km/h 96 % 1.5 mm 0 W/m2
05:55 8.5 °C 7.9 °C 998.5 hPa South 20.9 km/h 30.6 km/h 96 % 1.8 mm 0 W/m2
06:00 8.6 °C 8.0 °C 998.5 hPa South 19.3 km/h 27.4 km/h 96 % 1.8 mm 0 W/m2
06:05 8.7 °C 8.2 °C 998.2 hPa South 35.4 km/h 41.8 km/h 97 % 1.8 mm 0 W/m2
06:10 8.8 °C 8.3 °C 998.5 hPa SSW 17.7 km/h 41.8 km/h 97 % 1.5 mm 0 W/m2
06:15 8.8 °C 8.4 °C 998.2 hPa SSW 11.3 km/h 35.4 km/h 97 % 1.5 mm 0 W/m2
06:20 8.9 °C 8.4 °C 998.2 hPa SSW 12.9 km/h 29.0 km/h 97 % 2.0 mm 0 W/m2
06:25 8.9 °C 8.4 °C 998.5 hPa SW 8.0 km/h 29.0 km/h 97 % 2.0 mm 0 W/m2
06:30 8.9 °C 8.5 °C 998.2 hPa SSW 8.0 km/h 29.0 km/h 97 % 2.3 mm 0 W/m2
06:40 9.1 °C 8.6 °C 997.9 hPa SW 12.9 km/h 35.4 km/h 97 % 2.3 mm 0 W/m2
06:45 9.2 °C 8.7 °C 997.9 hPa WSW 25.7 km/h 38.6 km/h 97 % 2.3 mm 0 W/m2
06:50 9.3 °C 8.8 °C 997.5 hPa SSW 11.3 km/h 41.8 km/h 97 % 2.3 mm 0 W/m2
06:55 9.3 °C 8.9 °C 997.5 hPa WSW 25.7 km/h 41.8 km/h 97 % 2.3 mm 0 W/m2
07:00 9.3 °C 8.9 °C 997.2 hPa SSW 16.1 km/h 35.4 km/h 97 % 2.0 mm 0 W/m2
07:05 9.3 °C 8.9 °C 997.2 hPa South 6.4 km/h 35.4 km/h 97 % 2.3 mm 0 W/m2
07:10 9.4 °C 8.9 °C 997.2 hPa SW 20.9 km/h 30.6 km/h 97 % 2.3 mm 0 W/m2
07:15 9.4 °C 9.0 °C 997.2 hPa WSW 11.3 km/h 30.6 km/h 97 % 2.3 mm 0 W/m2
07:20 9.4 °C 9.0 °C 997.2 hPa WSW 29.0 km/h 43.4 km/h 97 % 1.8 mm 0 W/m2
07:25 9.6 °C 9.1 °C 997.2 hPa WSW 12.9 km/h 43.4 km/h 97 % 1.5 mm 0 W/m2
07:30 9.6 °C 9.1 °C 997.5 hPa WSW 29.0 km/h 37.0 km/h 97 % 1.0 mm 0 W/m2
07:35 9.6 °C 9.1 °C 997.2 hPa SW 27.4 km/h 41.8 km/h 97 % 1.0 mm 0 W/m2
07:40 9.5 °C 9.0 °C 997.5 hPa WSW 9.7 km/h 41.8 km/h 97 % 1.3 mm 0 W/m2
07:45 9.5 °C 9.0 °C 997.5 hPa SW 17.7 km/h 33.8 km/h 97 % 1.5 mm 0 W/m2
07:50 9.6 °C 9.2 °C 997.9 hPa SSW 14.5 km/h 45.1 km/h 97 % 1.5 mm 0 W/m2
07:55 9.8 °C 9.3 °C 998.2 hPa WSW 16.1 km/h 45.1 km/h 97 % 1.5 mm 5 W/m2
08:00 9.8 °C 9.4 °C 998.2 hPa WNW 16.1 km/h 38.6 km/h 97 % 1.5 mm 11 W/m2
08:05 9.9 °C 9.4 °C 998.5 hPa West 12.9 km/h 38.6 km/h 97 % 1.3 mm 23 W/m2
08:10 9.9 °C 9.5 °C 998.2 hPa WSW 14.5 km/h 33.8 km/h 97 % 1.3 mm 21 W/m2
08:15 9.9 °C 9.5 °C 998.5 hPa SW 8.0 km/h 32.2 km/h 97 % 1.0 mm 39 W/m2
08:20 10.0 °C 9.5 °C 998.2 hPa WNW 16.1 km/h 29.0 km/h 97 % 1.0 mm 54 W/m2
08:25 10.1 °C 9.6 °C 998.2 hPa WNW 11.3 km/h 29.0 km/h 97 % 1.0 mm 46 W/m2
08:30 10.0 °C 9.5 °C 998.2 hPa WNW 12.9 km/h 25.7 km/h 97 % 1.0 mm 46 W/m2
08:35 10.0 °C 9.4 °C 998.2 hPa WNW 27.4 km/h 27.4 km/h 96 % 0.8 mm 46 W/m2
08:40 9.9 °C 9.3 °C 998.2 hPa WNW 4.8 km/h 32.2 km/h 96 % 0.5 mm 47 W/m2
08:45 9.9 °C 9.3 °C 998.2 hPa WNW 8.0 km/h 32.2 km/h 96 % 0.3 mm 53 W/m2
08:50 9.9 °C 9.2 °C 998.5 hPa WNW 19.3 km/h 25.7 km/h 95 % 0.0 mm 46 W/m2
08:55 10.0 °C 9.2 °C 998.9 hPa West 14.5 km/h 27.4 km/h 95 % 0.0 mm 56 W/m2
09:05 10.2 °C 9.2 °C 998.5 hPa WSW 11.3 km/h 32.2 km/h 94 % 0.0 mm 53 W/m2
09:10 10.2 °C 9.3 °C 998.9 hPa WSW 25.7 km/h 32.2 km/h 94 % 0.0 mm 42 W/m2
09:15 10.2 °C 9.3 °C 999.5 hPa WNW 24.1 km/h 45.1 km/h 94 % 0.5 mm 14 W/m2
09:20 9.6 °C 8.3 °C 999.5 hPa West 11.3 km/h 49.9 km/h 92 % 0.8 mm 30 W/m2
09:25 8.9 °C 7.7 °C 999.9 hPa West 32.2 km/h 49.9 km/h 92 % 0.8 mm 26 W/m2
09:30 8.7 °C 7.6 °C 999.9 hPa NW 12.9 km/h 35.4 km/h 93 % 1.0 mm 16 W/m2
09:35 8.6 °C 7.5 °C 1000.2 hPa WNW 33.8 km/h 35.4 km/h 93 % 1.0 mm 21 W/m2
09:40 8.7 °C 7.8 °C 999.9 hPa NNW 19.3 km/h 45.1 km/h 94 % 1.0 mm 51 W/m2
09:45 8.7 °C 7.8 °C 999.9 hPa NW 17.7 km/h 45.1 km/h 94 % 1.5 mm 53 W/m2
09:50 8.7 °C 7.8 °C 999.9 hPa WNW 11.3 km/h 40.2 km/h 94 % 1.5 mm 162 W/m2
09:55 8.8 °C 7.9 °C 1000.2 hPa WNW 19.3 km/h 35.4 km/h 94 % 1.5 mm 163 W/m2
10:00 8.9 °C 8.0 °C 1000.2 hPa NW 12.9 km/h 38.6 km/h 94 % 1.5 mm 183 W/m2
10:05 9.1 °C 8.0 °C 1000.6 hPa WNW 8.0 km/h 38.6 km/h 93 % 1.5 mm 156 W/m2
10:10 9.2 °C 8.1 °C 1000.6 hPa WNW 14.5 km/h 38.6 km/h 93 % 1.5 mm 155 W/m2
10:15 9.3 °C 8.2 °C 1000.6 hPa West 14.5 km/h 38.6 km/h 93 % 1.0 mm 155 W/m2
10:20 9.4 °C 8.2 °C 999.9 hPa NW 20.9 km/h 35.4 km/h 92 % 0.8 mm 153 W/m2
10:25 9.5 °C 8.3 °C 1000.2 hPa West 16.1 km/h 35.4 km/h 92 % 0.5 mm 162 W/m2
10:30 9.6 °C 8.5 °C 1000.6 hPa West 33.8 km/h 37.0 km/h 93 % 0.5 mm 183 W/m2
10:40 9.9 °C 8.9 °C 1000.9 hPa West 25.7 km/h 33.8 km/h 93 % 0.5 mm 251 W/m2
10:45 10.1 °C 8.9 °C 1001.2 hPa West 22.5 km/h 33.8 km/h 92 % 0.3 mm 248 W/m2
10:50 10.3 °C 8.9 °C 1001.2 hPa WNW 24.1 km/h 40.2 km/h 91 % 0.3 mm 225 W/m2
10:55 10.3 °C 8.7 °C 1001.2 hPa NW 20.9 km/h 40.2 km/h 90 % 0.3 mm 213 W/m2
11:00 10.4 °C 8.7 °C 1001.6 hPa WNW 25.7 km/h 41.8 km/h 89 % 0.3 mm 316 W/m2
11:05 10.6 °C 8.7 °C 1001.2 hPa NW 22.5 km/h 45.1 km/h 88 % 0.0 mm 304 W/m2
11:10 10.9 °C 8.7 °C 1001.2 hPa West 14.5 km/h 45.1 km/h 86 % 0.0 mm 510 W/m2
11:15 11.3 °C 8.7 °C 1001.6 hPa NW 19.3 km/h 45.1 km/h 84 % 0.0 mm 390 W/m2
11:20 11.7 °C 9.1 °C 1001.2 hPa West 9.7 km/h 45.1 km/h 84 % 0.0 mm 497 W/m2
11:25 11.2 °C 8.6 °C 1001.6 hPa West 17.7 km/h 37.0 km/h 84 % 0.0 mm 135 W/m2
11:30 11.4 °C 8.2 °C 1001.6 hPa WNW 33.8 km/h 38.6 km/h 81 % 0.0 mm 520 W/m2
11:35 11.7 °C 8.0 °C 1001.6 hPa WNW 32.2 km/h 38.6 km/h 78 % 0.0 mm 527 W/m2
11:40 11.8 °C 7.5 °C 1001.6 hPa West 25.7 km/h 43.4 km/h 75 % 0.0 mm 524 W/m2
11:45 11.9 °C 7.8 °C 1001.9 hPa WNW 29.0 km/h 43.4 km/h 76 % 0.0 mm 529 W/m2
11:50 12.1 °C 8.0 °C 1001.9 hPa NW 12.9 km/h 41.8 km/h 76 % 0.0 mm 541 W/m2
11:55 12.2 °C 7.9 °C 1001.9 hPa WNW 17.7 km/h 41.8 km/h 75 % 0.0 mm 552 W/m2
12:00 12.2 °C 7.9 °C 1002.3 hPa WNW 17.7 km/h 40.2 km/h 75 % 0.0 mm 555 W/m2
12:05 12.3 °C 8.6 °C 1002.3 hPa WNW 24.1 km/h 40.2 km/h 78 % 0.0 mm 552 W/m2
12:10 12.3 °C 8.7 °C 1001.9 hPa NW 20.9 km/h 32.2 km/h 79 % 0.0 mm 429 W/m2
12:15 12.1 °C 8.9 °C 1002.3 hPa SW 11.3 km/h 30.6 km/h 81 % 0.0 mm 584 W/m2
12:20 12.3 °C 9.3 °C 1002.6 hPa WSW 12.9 km/h 30.6 km/h 82 % 0.0 mm 705 W/m2
12:25 12.3 °C 9.7 °C 1002.6 hPa West 20.9 km/h 29.0 km/h 84 % 0.0 mm 380 W/m2
12:30 11.7 °C 8.9 °C 1002.6 hPa West 9.7 km/h 33.8 km/h 83 % 0.0 mm 346 W/m2
12:35 11.4 °C 8.8 °C 1002.6 hPa WNW 25.7 km/h 33.8 km/h 84 % 0.0 mm 265 W/m2
12:40 11.3 °C 8.8 °C 1002.9 hPa WNW 16.1 km/h 33.8 km/h 85 % 0.0 mm 183 W/m2
12:45 11.1 °C 8.6 °C 1003.3 hPa NW 12.9 km/h 33.8 km/h 85 % 0.0 mm 81 W/m2
12:50 10.8 °C 8.5 °C 1003.6 hPa WNW 40.2 km/h 40.2 km/h 86 % 0.0 mm 16 W/m2
12:55 10.2 °C 7.9 °C 1004.6 hPa WNW 30.6 km/h 48.3 km/h 86 % 1.5 mm 19 W/m2
13:00 8.9 °C 7.0 °C 1004.3 hPa NNW 19.3 km/h 59.5 km/h 88 % 2.3 mm 144 W/m2
13:05 8.4 °C 6.9 °C 1003.9 hPa West 25.7 km/h 59.5 km/h 90 % 2.3 mm 213 W/m2
13:10 8.7 °C 7.4 °C 1003.9 hPa WNW 22.5 km/h 53.1 km/h 92 % 2.3 mm 710 W/m2
13:15 8.7 °C 7.3 °C 1004.3 hPa NW 16.1 km/h 40.2 km/h 91 % 2.3 mm 134 W/m2
13:20 9.0 °C 7.8 °C 1003.9 hPa NW 19.3 km/h 41.8 km/h 92 % 2.3 mm 272 W/m2
13:25 9.2 °C 8.0 °C 1003.9 hPa WSW 27.4 km/h 41.8 km/h 92 % 2.3 mm 471 W/m2
13:30 9.7 °C 8.5 °C 1003.9 hPa WNW 12.9 km/h 29.0 km/h 92 % 2.3 mm 373 W/m2
13:35 9.8 °C 8.4 °C 1003.9 hPa West 16.1 km/h 29.0 km/h 91 % 2.3 mm 253 W/m2
13:40 10.4 °C 9.1 °C 1003.9 hPa WNW 6.4 km/h 29.0 km/h 92 % 2.3 mm 680 W/m2
13:45 11.0 °C 9.6 °C 1003.9 hPa West 27.4 km/h 40.2 km/h 91 % 2.3 mm 652 W/m2
13:50 11.1 °C 9.2 °C 1004.3 hPa West 16.1 km/h 40.2 km/h 88 % 2.3 mm 413 W/m2
13:55 10.9 °C 8.9 °C 1004.3 hPa West 12.9 km/h 38.6 km/h 87 % 1.0 mm 677 W/m2
14:00 11.3 °C 9.2 °C 1004.3 hPa WNW 27.4 km/h 38.6 km/h 87 % 0.0 mm 547 W/m2
14:10 10.7 °C 8.1 °C 1004.3 hPa NW 19.3 km/h 46.7 km/h 84 % 0.0 mm 258 W/m2
14:15 10.4 °C 7.7 °C 1004.3 hPa WSW 12.9 km/h 46.7 km/h 83 % 0.0 mm 318 W/m2
14:20 10.3 °C 7.3 °C 1004.3 hPa NW 32.2 km/h 40.2 km/h 82 % 0.0 mm 357 W/m2
14:25 10.8 °C 7.8 °C 1004.6 hPa NW 16.1 km/h 38.6 km/h 82 % 0.0 mm 610 W/m2
14:30 11.0 °C 7.9 °C 1004.3 hPa NW 11.3 km/h 38.6 km/h 81 % 0.0 mm 673 W/m2
14:35 10.8 °C 7.8 °C 1004.3 hPa WNW 12.9 km/h 33.8 km/h 82 % 0.0 mm 308 W/m2
14:40 10.5 °C 7.6 °C 1004.6 hPa West 25.7 km/h 32.2 km/h 82 % 0.0 mm 183 W/m2
14:45 10.3 °C 7.3 °C 1004.6 hPa WNW 14.5 km/h 32.2 km/h 82 % 0.0 mm 125 W/m2
14:50 10.1 °C 7.5 °C 1005.0 hPa NW 20.9 km/h 30.6 km/h 84 % 0.0 mm 65 W/m2
14:55 9.8 °C 7.4 °C 1005.0 hPa NW 24.1 km/h 33.8 km/h 85 % 0.0 mm 156 W/m2
15:00 9.6 °C 7.3 °C 1005.0 hPa WNW 16.1 km/h 38.6 km/h 86 % 0.0 mm 118 W/m2
15:05 9.3 °C 6.9 °C 1005.0 hPa West 20.9 km/h 38.6 km/h 85 % 0.3 mm 125 W/m2
15:10 9.1 °C 7.1 °C 1005.0 hPa West 27.4 km/h 37.0 km/h 87 % 0.3 mm 197 W/m2
15:15 9.1 °C 7.4 °C 1005.0 hPa WNW 24.1 km/h 37.0 km/h 89 % 0.5 mm 267 W/m2
15:20 9.1 °C 7.2 °C 1005.3 hPa WNW 20.9 km/h 35.4 km/h 88 % 0.5 mm 127 W/m2
15:25 9.1 °C 7.3 °C 1005.0 hPa West 19.3 km/h 38.6 km/h 89 % 0.5 mm 146 W/m2
15:30 9.1 °C 7.5 °C 1005.3 hPa WSW 17.7 km/h 38.6 km/h 90 % 0.5 mm 151 W/m2
15:35 9.0 °C 7.4 °C 1005.3 hPa WNW 27.4 km/h 38.6 km/h 90 % 0.5 mm 95 W/m2
15:40 8.9 °C 7.4 °C 1005.3 hPa WNW 19.3 km/h 37.0 km/h 90 % 0.5 mm 121 W/m2
15:50 9.2 °C 7.4 °C 1005.3 hPa WNW 9.7 km/h 38.6 km/h 89 % 0.5 mm 104 W/m2
15:55 9.2 °C 7.5 °C 1005.3 hPa WNW 14.5 km/h 38.6 km/h 89 % 0.5 mm 125 W/m2
16:00 9.3 °C 7.4 °C 1005.6 hPa West 11.3 km/h 35.4 km/h 88 % 0.5 mm 114 W/m2
16:05 9.4 °C 7.6 °C 1005.6 hPa WNW 14.5 km/h 35.4 km/h 88 % 0.5 mm 155 W/m2
16:10 9.6 °C 7.7 °C 1005.3 hPa WNW 12.9 km/h 35.4 km/h 88 % 0.5 mm 151 W/m2
16:15 9.8 °C 7.9 °C 1005.6 hPa WNW 25.7 km/h 35.4 km/h 88 % 0.3 mm 176 W/m2
16:20 9.9 °C 8.2 °C 1005.6 hPa WNW 19.3 km/h 32.2 km/h 89 % 0.3 mm 264 W/m2
16:25 10.2 °C 8.3 °C 1006.0 hPa NW 11.3 km/h 29.0 km/h 88 % 0.3 mm 318 W/m2
16:30 10.5 °C 8.4 °C 1006.0 hPa West 11.3 km/h 43.4 km/h 87 % 0.3 mm 269 W/m2
16:35 10.6 °C 8.3 °C 1006.0 hPa NW 14.5 km/h 43.4 km/h 86 % 0.0 mm 311 W/m2
16:40 10.6 °C 8.3 °C 1006.0 hPa West 22.5 km/h 35.4 km/h 86 % 0.0 mm 292 W/m2
16:45 10.7 °C 8.4 °C 1006.3 hPa NNW 19.3 km/h 35.4 km/h 86 % 0.0 mm 137 W/m2
16:50 10.6 °C 8.3 °C 1006.3 hPa NW 17.7 km/h 33.8 km/h 86 % 0.0 mm 213 W/m2
16:55 10.5 °C 8.3 °C 1006.3 hPa WNW 12.9 km/h 33.8 km/h 86 % 0.0 mm 172 W/m2
17:00 10.6 °C 8.3 °C 1006.7 hPa WNW 20.9 km/h 35.4 km/h 86 % 0.0 mm 151 W/m2
17:05 10.4 °C 8.2 °C 1006.7 hPa WNW 24.1 km/h 37.0 km/h 86 % 0.0 mm 67 W/m2
17:10 10.4 °C 8.1 °C 1006.7 hPa NW 17.7 km/h 37.0 km/h 86 % 0.0 mm 121 W/m2
17:15 10.6 °C 8.2 °C 1006.7 hPa WNW 14.5 km/h 33.8 km/h 85 % 0.0 mm 118 W/m2
17:20 10.8 °C 8.0 °C 1006.7 hPa NW 17.7 km/h 37.0 km/h 83 % 0.0 mm 84 W/m2
17:25 10.8 °C 8.0 °C 1006.7 hPa West 22.5 km/h 37.0 km/h 83 % 0.0 mm 76 W/m2
17:30 10.6 °C 8.0 °C 1006.7 hPa WSW 9.7 km/h 32.2 km/h 84 % 0.0 mm 60 W/m2
17:35 10.6 °C 8.1 °C 1007.0 hPa WSW 9.7 km/h 32.2 km/h 85 % 0.0 mm 97 W/m2
17:40 10.6 °C 8.4 °C 1007.0 hPa WNW 29.0 km/h 29.0 km/h 86 % 0.0 mm 69 W/m2
17:45 10.6 °C 8.4 °C 1007.0 hPa SW 20.9 km/h 30.6 km/h 86 % 0.0 mm 79 W/m2
17:50 10.6 °C 8.3 °C 1007.0 hPa West 14.5 km/h 35.4 km/h 86 % 0.0 mm 47 W/m2
17:55 10.4 °C 8.1 °C 1007.3 hPa WNW 22.5 km/h 35.4 km/h 86 % 0.0 mm 26 W/m2
18:00 10.2 °C 8.2 °C 1007.0 hPa NW 14.5 km/h 32.2 km/h 87 % 0.0 mm 25 W/m2
18:05 10.2 °C 7.9 °C 1007.0 hPa WNW 11.3 km/h 30.6 km/h 86 % 0.0 mm 28 W/m2
18:10 10.2 °C 8.0 °C 1007.0 hPa WNW 24.1 km/h 37.0 km/h 86 % 0.0 mm 35 W/m2
18:15 10.3 °C 7.9 °C 1007.3 hPa West 22.5 km/h 37.0 km/h 85 % 0.0 mm 42 W/m2
18:20 10.3 °C 7.7 °C 1007.3 hPa NW 16.1 km/h 33.8 km/h 84 % 0.0 mm 33 W/m2
18:25 10.3 °C 7.9 °C 1007.3 hPa West 11.3 km/h 33.8 km/h 85 % 0.0 mm 30 W/m2
18:30 10.3 °C 7.9 °C 1007.3 hPa WNW 14.5 km/h 27.4 km/h 85 % 0.0 mm 28 W/m2
18:35 10.3 °C 7.9 °C 1007.3 hPa NNW 19.3 km/h 32.2 km/h 85 % 0.0 mm 26 W/m2
18:40 10.3 °C 7.7 °C 1007.7 hPa WNW 22.5 km/h 35.4 km/h 84 % 0.0 mm 18 W/m2
18:45 10.4 °C 7.6 °C 1007.7 hPa West 12.9 km/h 35.4 km/h 83 % 0.0 mm 14 W/m2
18:50 10.3 °C 7.7 °C 1007.7 hPa NW 19.3 km/h 32.2 km/h 84 % 0.0 mm 7 W/m2
18:55 10.2 °C 7.8 °C 1008.0 hPa NW 19.3 km/h 30.6 km/h 85 % 0.0 mm 0 W/m2
19:00 10.2 °C 7.8 °C 1008.0 hPa West 16.1 km/h 30.6 km/h 85 % 0.0 mm 0 W/m2
19:05 10.1 °C 7.8 °C 1008.0 hPa West 11.3 km/h 30.6 km/h 86 % 0.0 mm 0 W/m2
19:10 10.0 °C 7.9 °C 1008.0 hPa West 16.1 km/h 30.6 km/h 87 % 0.0 mm 0 W/m2
19:15 10.1 °C 8.0 °C 1008.4 hPa WSW 6.4 km/h 30.6 km/h 87 % 0.0 mm 0 W/m2
19:20 10.1 °C 7.8 °C 1008.4 hPa NW 11.3 km/h 30.6 km/h 86 % 0.0 mm 0 W/m2
19:25 10.1 °C 7.9 °C 1008.4 hPa West 11.3 km/h 30.6 km/h 86 % 0.0 mm 0 W/m2
19:30 10.1 °C 7.9 °C 1008.7 hPa West 12.9 km/h 29.0 km/h 86 % 0.0 mm 0 W/m2
19:35 10.1 °C 7.9 °C 1008.7 hPa West 17.7 km/h 27.4 km/h 86 % 0.0 mm 0 W/m2
19:40 10.2 °C 7.9 °C 1008.7 hPa West 11.3 km/h 30.6 km/h 86 % 0.0 mm 0 W/m2
19:45 10.1 °C 8.0 °C 1008.7 hPa WNW 9.7 km/h 30.6 km/h 87 % 0.0 mm 0 W/m2
19:50 10.1 °C 8.0 °C 1008.7 hPa West 14.5 km/h 29.0 km/h 87 % 0.0 mm 0 W/m2
19:55 10.1 °C 8.0 °C 1008.7 hPa WNW 9.7 km/h 30.6 km/h 87 % 0.0 mm 0 W/m2
20:00 10.1 °C 8.0 °C 1008.7 hPa West 20.9 km/h 30.6 km/h 87 % 0.0 mm 0 W/m2
20:05 10.1 °C 8.0 °C 1009.0 hPa WNW 11.3 km/h 29.0 km/h 87 % 0.0 mm 0 W/m2
20:10 10.1 °C 8.2 °C 1009.0 hPa NW 8.0 km/h 29.0 km/h 88 % 0.0 mm 0 W/m2
20:15 10.2 °C 8.3 °C 1009.0 hPa WNW 20.9 km/h 25.7 km/h 88 % 0.0 mm 0 W/m2
20:20 10.2 °C 8.2 °C 1009.4 hPa NW 17.7 km/h 29.0 km/h 87 % 0.0 mm 0 W/m2
20:25 10.3 °C 8.2 °C 1009.4 hPa NW 11.3 km/h 29.0 km/h 87 % 0.0 mm 0 W/m2
20:30 10.3 °C 8.1 °C 1009.4 hPa WNW 12.9 km/h 27.4 km/h 86 % 0.0 mm 0 W/m2
20:40 10.4 °C 8.0 °C 1009.4 hPa West 11.3 km/h 40.2 km/h 85 % 0.0 mm 0 W/m2
20:45 10.4 °C 8.0 °C 1009.4 hPa NW 11.3 km/h 40.2 km/h 85 % 0.0 mm 0 W/m2
20:50 10.3 °C 7.9 °C 1009.4 hPa West 14.5 km/h 33.8 km/h 85 % 0.0 mm 0 W/m2
20:55 10.3 °C 7.9 °C 1009.4 hPa WNW 17.7 km/h 33.8 km/h 85 % 0.0 mm 0 W/m2
21:00 10.3 °C 7.9 °C 1009.4 hPa WNW 20.9 km/h 32.2 km/h 85 % 0.0 mm 0 W/m2
21:05 10.4 °C 7.8 °C 1009.7 hPa NW 20.9 km/h 32.2 km/h 84 % 0.0 mm 0 W/m2
21:10 10.4 °C 7.8 °C 1009.7 hPa NW 9.7 km/h 29.0 km/h 84 % 0.0 mm 0 W/m2
21:15 10.4 °C 7.6 °C 1009.7 hPa WNW 6.4 km/h 29.0 km/h 83 % 0.0 mm 0 W/m2
21:20 10.2 °C 7.8 °C 1009.7 hPa WNW 6.4 km/h 29.0 km/h 85 % 0.0 mm 0 W/m2
21:30 10.1 °C 8.2 °C 1009.7 hPa West 6.4 km/h 20.9 km/h 88 % 0.0 mm 0 W/m2
21:35 9.9 °C 8.2 °C 1009.7 hPa West 16.1 km/h 20.9 km/h 89 % 0.0 mm 0 W/m2
21:40 9.9 °C 8.4 °C 1010.0 hPa West 6.4 km/h 20.9 km/h 90 % 0.0 mm 0 W/m2
21:45 9.8 °C 8.3 °C 1010.0 hPa West 14.5 km/h 17.7 km/h 90 % 0.0 mm 0 W/m2
21:55 9.8 °C 8.2 °C 1009.7 hPa WNW 14.5 km/h 19.3 km/h 90 % 0.0 mm 0 W/m2
22:00 9.8 °C 8.2 °C 1010.0 hPa West 4.8 km/h 19.3 km/h 90 % 0.0 mm 0 W/m2
22:05 9.8 °C 8.3 °C 1010.0 hPa West 9.7 km/h 20.9 km/h 90 % 0.0 mm 0 W/m2
22:10 9.8 °C 8.2 °C 1010.0 hPa WNW 11.3 km/h 20.9 km/h 90 % 0.0 mm 0 W/m2
22:15 9.8 °C 8.4 °C 1010.0 hPa WNW 8.0 km/h 20.9 km/h 91 % 0.0 mm 0 W/m2
22:20 9.8 °C 8.2 °C 1010.0 hPa WNW 3.2 km/h 20.9 km/h 90 % 0.0 mm 0 W/m2
22:30 9.8 °C 8.1 °C 1010.0 hPa West 6.4 km/h 17.7 km/h 89 % 0.0 mm 0 W/m2
22:35 9.9 °C 8.2 °C 1010.0 hPa West 11.3 km/h 17.7 km/h 89 % 0.0 mm 0 W/m2
22:40 9.9 °C 8.2 °C 1010.0 hPa West 12.9 km/h 17.7 km/h 89 % 0.0 mm 0 W/m2
22:45 9.8 °C 8.3 °C 1010.0 hPa West 6.4 km/h 19.3 km/h 90 % 0.0 mm 0 W/m2
22:50 9.7 °C 8.2 °C 1010.0 hPa West 4.8 km/h 19.3 km/h 90 % 0.0 mm 0 W/m2
22:55 9.6 °C 8.2 °C 1010.0 hPa NW 11.3 km/h 17.7 km/h 91 % 0.0 mm 0 W/m2
23:00 9.6 °C 8.2 °C 1010.0 hPa West 6.4 km/h 17.7 km/h 91 % 0.0 mm 0 W/m2
23:05 9.6 °C 8.4 °C 1010.0 hPa West 1.6 km/h 12.9 km/h 92 % 0.0 mm 0 W/m2
23:10 9.6 °C 8.4 °C 1010.4 hPa West 8.0 km/h 12.9 km/h 92 % 0.0 mm 0 W/m2
23:15 9.7 °C 8.4 °C 1010.0 hPa West 8.0 km/h 14.5 km/h 92 % 0.0 mm 0 W/m2
23:20 9.7 °C 8.5 °C 1010.0 hPa West 6.4 km/h 14.5 km/h 92 % 0.0 mm 0 W/m2
23:25 9.7 °C 8.4 °C 1010.0 hPa West 3.2 km/h 16.1 km/h 92 % 0.0 mm 0 W/m2
23:30 9.7 °C 8.6 °C 1010.0 hPa WNW 3.2 km/h 17.7 km/h 93 % 0.0 mm 0 W/m2
23:35 9.7 °C 8.6 °C 1010.0 hPa West 9.7 km/h 17.7 km/h 93 % 0.0 mm 0 W/m2
23:40 9.7 °C 8.6 °C 1010.0 hPa West 6.4 km/h 11.3 km/h 93 % 0.0 mm 0 W/m2
23:45 9.6 °C 8.5 °C 1010.0 hPa West 3.2 km/h 9.7 km/h 93 % 0.0 mm 0 W/m2
23:50 9.6 °C 8.5 °C 1010.0 hPa West 3.2 km/h 9.7 km/h 93 % 0.0 mm 0 W/m2
Avec l'autorisation de Weather Underground - 1.75 mb